Home > Weather > Karlstad > Past weeks

Flag for Sweden Past Weather in Karlstad, Sweden — Yesterday and Last 2 Weeks

Now
50 °F

Cool.


Feels Like: 50 °F
Forecast: 50 / 58 °F
Wind: No wind

Location: Karlstad

Current Time: Aug 28, 2016 at 2:28:20 AM

Latest Report: Aug 28, 2016 at 1:50 AM


Visibility: N/A

Pressure: 30.09 "Hg

Humidity: 100%

Dew Point: 50 °F

Location of KarlstadLocation

Past Weather in Karlstad — Graph

°F

Karlstad Temperature Yesterday

Maximum temperature yesterday: 68 °F (at 12:20 PM)
Minimum temperature yesterday: 52 °F (at 11:50 PM)
Average temperature yesterday: 61 °F

High & Low Weather Summary for the Past Weeks

 TemperatureHumidityPressure
High75 °F (Aug 26, 2:20 PM)100% (Aug 13, 1:20 AM)30.30 "Hg (Aug 13, 1:20 AM)
Low46 °F (Aug 15, 5:20 AM)33% (Aug 15, 3:50 PM)29.59 "Hg (Aug 13, 2:50 AM)
Average60 °F79%29.99 "Hg
* Reported Aug 13 1:20 AM — Aug 28 1:20 AM, Karlstad, Weather by CustomWeather, © 2016

Note: Actual official high and low records may vary slightly from our data, if they occured in-between our weather recording intervals... More about our weather records

Advertising

Karlstad Weather History for the Previous 24 Hours

Scroll right to see more
 ConditionsComfort  
Time TempWeatherWind HumidityBarometerVisibility
1:20 AM
Sun, Aug 28
48 °FCool.2 mph94%30.07 "HgN/A
12:50 AM50 °FCool.2 mph94%30.07 "HgN/A
12:20 AM50 °FCool.No wind94%30.07 "HgN/A
11:50 PM
Sat, Aug 27
52 °FCool.3 mph88%30.07 "HgN/A
11:20 PM54 °FCool.5 mph82%30.07 "HgN/A
10:50 PM55 °FCool.5 mph82%30.07 "HgN/A
10:20 PM57 °FCool.7 mph77%30.07 "HgN/A
9:50 PM59 °FCool.6 mph72%30.07 "HgN/A
9:20 PM59 °FCool.7 mph72%30.07 "HgN/A
8:50 PM59 °FCool.6 mph72%30.07 "HgN/A
8:20 PM59 °FCool.6 mph72%30.04 "HgN/A
7:50 PM63 °FSunny.6 mph68%30.04 "Hg10 mi
7:20 PM66 °FPassing clouds.6 mph60%30.04 "HgN/A
6:50 PM66 °FPassing clouds.6 mph56%30.04 "HgN/A
6:20 PM68 °FPassing clouds.7 mph46%30.04 "HgN/A
5:50 PM68 °FPassing clouds.5 mph49%30.04 "HgN/A
5:20 PM66 °FPassing clouds.6 mph52%30.04 "HgN/A
4:50 PM68 °FPassing clouds.9 mph46%30.04 "HgN/A
4:20 PM66 °FPassing clouds.7 mph49%30.04 "HgN/A
3:55 PM68 °FPassing clouds.8 mph46%30.04 "HgN/A
3:20 PM68 °FPartly sunny.10 mph46%30.01 "HgN/A
2:50 PM66 °FScattered clouds.10 mph49%30.01 "HgN/A
2:20 PM68 °FPassing clouds.12 mph46%30.01 "HgN/A
1:50 PM68 °FPassing clouds.12 mph46%30.01 "HgN/A
1:20 PM66 °FPassing clouds.12 mph46%29.98 "HgN/A
12:50 PM68 °FMild.14 mph43%29.98 "HgN/A
12:20 PM68 °FPassing clouds.14 mph46%29.98 "HgN/A
11:50 AM66 °FPassing clouds.13 mph52%29.95 "HgN/A
11:20 AM66 °FSunny.15 mph52%29.95 "Hg10 mi
10:50 AM64 °FPassing clouds.13 mph56%29.95 "HgN/A
10:20 AM63 °FPassing clouds.13 mph59%29.95 "HgN/A
9:50 AM63 °FPassing clouds.13 mph59%29.95 "HgN/A
9:20 AM61 °FCool.13 mph63%29.92 "HgN/A
8:50 AM61 °FCool.12 mph68%29.92 "HgN/A
8:20 AM59 °FCool.9 mph72%29.92 "HgN/A
7:50 AM59 °FCool.8 mph72%29.92 "HgN/A
7:20 AM57 °FCool.9 mph77%29.89 "HgN/A
6:50 AM57 °FCool.9 mph77%29.89 "HgN/A
6:20 AM55 °FCool.9 mph82%29.89 "HgN/A
5:50 AM57 °FCool.10 mph77%29.86 "HgN/A
5:20 AM57 °FCool.16 mph82%29.86 "HgN/A
4:50 AM57 °FCool.13 mph82%29.86 "HgN/A
4:20 AM57 °FCool.10 mph82%29.86 "HgN/A
3:50 AM57 °FCool.10 mph88%29.86 "HgN/A
3:20 AM57 °FCool.13 mph88%29.86 "HgN/A
2:50 AM57 °FCool.14 mph88%29.86 "HgN/A
2:20 AM57 °FCool.12 mph88%29.86 "HgN/A
Weather by CustomWeather, © 2016

See weather overviewHow to use our weather pages